Regional Weather Roundup
Issued by NWS

Home | Current Version | Previous Version | Text Only | Print | Product List | Glossary Off
Versions: 1 2 3 4 5 6 7 8 9 10 11 12 13 14 15 16 17 18 19 20 21 22 23 24 25 26 27 28 29 30 31 32 33 34 35 36 37 38 39 40 41 42 43 44 45 46 47 48 49 50

000
ASUS44 KMEG 232210
RWRTN
TENNESSEE HOURLY STATE WEATHER ROUNDUP
NATIONAL WEATHER SERVICE MEMPHIS TN
500 PM CDT SAT SEP 23 2017

TNZ002-004-019-021-049-052-054-088>092-232300-
WEST TENNESSEE

CITY           SKY/WX    TMP DP  RH WIND       PRES   REMARKS
MEMPHIS INTL   MOSUNNY   89  66  46 VRB6      29.95F HX  91
NWS MEMPHIS      N/A     90 N/A N/A MISG        N/A
JACKSON        MOSUNNY   91  66  43 E7        29.98S HX  93
DYERSBURG      SUNNY     90  67  46 E6        29.98S HX  93
SOMERVILLE     SUNNY     90  68  48 CALM      29.96S HX  93
COVINGTON      SUNNY     90  70  51 CALM      29.96S HX  95
BOLIVAR        SUNNY     88  66  48 NE6       29.97S HX  90
PARIS          SUNNY     88  66  48 E7        29.99S HX  90
HUNTINGDON     SUNNY     88  68  51 VRB7      29.98S HX  91
LEXINGTON      SUNNY     88  68  51 NE7       29.98S HX  91
SELMER         SUNNY     88  66  48 NE5       29.97F HX  90
SAVANNAH       SUNNY     90  68  48 NE6       29.96F HX  93
$$

TNZ008-025-027-028-033-062-065-066-232300-
NORTH MIDDLE TENNESSEE

CITY           SKY/WX    TMP DP  RH WIND       PRES   REMARKS
NASHVILLE      MOSUNNY   88  65  46 NE7       30.01R HX  90
PORTLAND       SUNNY     86  68  54 NE7       30.02R
CLARKSVILLE    MOSUNNY   87  66  49 NE5       30.00S
SMYRNA         MOSUNNY   89  66  46 E9        30.02R HX  91
COOKEVILLE     MOSUNNY   82  68  61 E9        30.03R
GALLATIN       SUNNY     88  68  51 VRB5      30.03S HX  91
CROSSVILLE     SUNNY     82  64  54 NE7       30.09R
$$

TNZ061-075-076-078-094-096-097-232300-
SOUTH MIDDLE TENNESSEE

CITY           SKY/WX    TMP DP  RH WIND       PRES   REMARKS
FAYETTEVILLE   MOSUNNY   75  66  73 NE10G21   30.02R HAZE
TULLAHOMA      MOSUNNY   79  66  65 SE6       30.04R
WINCHESTER     SUNNY     81  66  61 NE5       30.02F
MCMINNVILLE    SUNNY     73  73 100 CALM      30.04F
COLUMBIA       MOSUNNY   88 N/A N/A E6        29.98R
SHELBYVILLE    MOSUNNY   84  66  54 E6G13     30.00S
$$

TNZ017-018-042-046-047-232300-
NORTHEAST TENNESSEE

CITY           SKY/WX    TMP DP  RH WIND       PRES   REMARKS
TRI CITIES     MOSUNNY   88  61  40 N3        30.04S
ELIZABETHTON   MOSUNNY   86  59  39 CALM      30.05R
$$

TNZ012-013-036-069-073-074-232300-
CENTRAL EAST TENNESSEE

CITY           SKY/WX    TMP DP  RH WIND       PRES   REMARKS
KNOXVILLE      MOSUNNY   88  58  36 N8        30.01R
OAK RIDGE      SUNNY     85  64  49 VRB3      30.03S
DOWNTOWN KNOXV SUNNY     88  66  48 CALM      30.00S HX  90
GATLINBURG     SUNNY     88  57  35 NE6       30.01R
MORRISTOWN     MOSUNNY   88  59  37 CALM      30.01F
JACKSBORO      MOSUNNY   84  66  54 CALM      30.07R
$$

TNZ083-085-099-232300-
SOUTHEAST TENNESSEE

CITY           SKY/WX    TMP DP  RH WIND       PRES   REMARKS
CHATTANOOGA    CLOUDY    87  64  46 NE7       30.01R
DAYTON         CLEAR     88  70  55 NE7       30.00R HX  92
$$

SKY/WX REPORTED AS FAIR MEANS FEW OR NO CLOUDS BELOW
12 THOUSAND FEET.





USA.gov is the U.S. government's official web portal to all federal, state and local government web resources and services.